IVARAZ6 Weather Reports


Display with metric or nautical units.
time (UTC)temp
F
wind
direction
speed
MPH
gust
MPH
rain 1hr
in
rain 24hr
in
rain mn
in
humidity
%
barometer
mb
20260507111624 68 321 3.0 7.0 0.00 0.00 0.00 70 1011.2
20260507111121 68 309 1.0 9.0 0.00 0.00 0.00 71 1011.2
20260507110618 68 97 2.0 9.0 0.00 0.00 0.00 71 1011.3
20260507110118 68 239 3.0 8.0 0.00 0.00 0.00 72 1011.3
20260507105618 68 134 2.0 9.0 0.00 0.00 0.00 71 1011.3
20260507105118 68 317 2.0 10.0 0.00 0.00 0.00 72 1011.3
20260507104621 68 258 4.0 8.0 0.00 0.00 0.00 72 1011.3
20260507104124 67 255 3.0 6.0 0.00 0.00 0.00 74 1011.3
20260507103621 66 242 3.0 9.0 0.00 0.00 0.00 75 1011.4
20260507103121 66 227 4.0 8.0 0.00 0.00 0.00 75 1011.4
20260507102624 66 315 1.0 8.0 0.00 0.00 0.00 75 1011.4
20260507102121 66 80 3.0 9.0 0.00 0.00 0.00 76 1011.5
20260507101618 65 72 0.0 6.0 0.00 0.00 0.00 77 1011.4
20260507101121 65 136 3.0 9.0 0.00 0.00 0.00 78 1011.3
20260507100621 64 321 4.0 8.0 0.00 0.00 0.00 78 1011.4
20260507100121 63 213 3.0 6.0 0.00 0.00 0.00 82 1011.4
20260507095621 62 76 0.0 4.0 0.00 0.00 0.00 84 1011.4
20260507095118 62 87 2.0 3.0 0.00 0.00 0.00 84 1011.4
20260507094618 62 65 3.0 5.0 0.00 0.00 0.00 84 1011.4
20260507094118 61 38 2.0 4.0 0.00 0.00 0.00 85 1011.5
20260507093618 61 22 3.0 5.0 0.00 0.00 0.00 84 1011.5
20260507093118 61 59 3.0 5.0 0.00 0.00 0.00 83 1011.4
20260507092621 62 67 4.0 5.0 0.00 0.00 0.00 82 1011.4
20260507092118 63 60 2.0 5.0 0.00 0.00 0.00 80 1011.3
20260507091618 64 37 3.0 4.0 0.00 0.00 0.00 78 1011.3
20260507091118 64 32 1.0 8.0 0.00 0.00 0.00 77 1011.2
20260507090618 65 59 4.0 9.0 0.00 0.00 0.00 75 1011.2
20260507090119 65 144 3.0 9.0 0.00 0.00 0.00 75 1011.2
20260507085618 66 206 5.0 9.0 0.00 0.00 0.00 75 1011.1
20260507085118 65 187 1.0 7.0 0.00 0.00 0.00 76 1011.0
20260507084627 65 24 1.0 9.0 0.00 0.00 0.00 77 1011.0
20260507084118 65 40 7.0 9.0 0.00 0.00 0.00 77 1010.9
20260507083621 65 341 5.0 9.0 0.00 0.00 0.00 79 1010.7
20260507083121 65 296 5.0 9.0 0.00 0.00 0.00 79 1010.6
20260507082618 65 311 2.0 9.0 0.00 0.00 0.00 79 1010.7
20260507082118 65 335 6.0 9.0 0.00 0.00 0.00 79 1010.7
20260507081618 65 346 3.0 9.0 0.00 0.00 0.00 79 1010.7
20260507081118 65 294 4.0 7.0 0.00 0.00 0.00 79 1010.6
20260507080621 65 321 3.0 10.0 0.00 0.00 0.00 78 1010.6
20260507080118 65 284 2.0 7.0 0.00 0.00 0.00 78 1010.5
20260507075618 65 256 2.0 6.0 0.00 0.00 0.00 77 1010.5
20260507075118 65 327 2.0 6.0 0.00 0.00 0.00 78 1010.4
20260507074621 65 19 1.0 6.0 0.00 0.00 0.00 78 1010.5
20260507074118 65 62 2.0 6.0 0.00 0.00 0.00 78 1010.4
20260507073618 65 346 4.0 8.0 0.00 0.00 0.00 77 1010.4
20260507073124 65 336 3.0 6.0 0.00 0.00 0.00 77 1010.4
20260507072621 65 286 2.0 6.0 0.00 0.00 0.00 77 1010.5
20260507072121 65 319 5.0 8.0 0.00 0.00 0.00 78 1010.3
20260507071621 65 317 3.0 5.0 0.00 0.00 0.00 77 1010.4
20260507071118 65 317 2.0 8.0 0.00 0.00 0.00 77 1010.3
20260507070618 65 205 4.0 4.0 0.00 0.00 0.00 77 1010.3
20260507070124 65 12 1.0 6.0 0.00 0.00 0.00 78 1010.2
20260507065618 65 355 1.0 7.0 0.00 0.00 0.00 78 1010.1
20260507065121 65 275 4.0 6.0 0.00 0.00 0.00 79 1010.1
20260507064618 64 198 1.0 7.0 0.00 0.00 0.00 79 1010.0
20260507064121 64 0 5.0 6.0 0.00 0.00 0.00 79 1010.0
20260507063621 63 336 5.0 5.0 0.00 0.00 0.00 79 1010.0
20260507063118 63 315 3.0 8.0 0.00 0.00 0.00 80 1009.9
20260507062619 63 343 4.0 6.0 0.00 0.00 0.00 79 1010.0
20260507062124 63 228 2.0 5.0 0.00 0.00 0.00 79 1009.9
20260507061624 63 29 1.0 7.0 0.00 0.00 0.00 79 1009.9
20260507061118 63 0 2.0 5.0 0.00 0.00 0.00 80 1009.8
20260507060618 63 327 3.0 4.0 0.00 0.00 0.00 80 1009.7
20260507060118 63 339 2.0 4.0 0.00 0.00 0.00 80 1009.8
20260507055618 63 340 3.0 6.0 0.00 0.02 0.00 80 1009.7
20260507055127 63 0 1.0 8.0 0.00 0.03 0.00 80 1009.7
20260507054621 63 300 5.0 7.0 0.00 0.04 0.00 80 1009.7
20260507054118 63 301 1.0 6.0 0.00 0.05 0.00 81 1009.7
20260507053618 63 273 2.0 6.0 0.00 0.07 0.00 81 1009.6
20260507053121 62 24 3.0 4.0 0.00 0.11 0.00 82 1009.5
20260507052618 62 74 2.0 7.0 0.00 0.11 0.00 82 1009.4
20260507052118 62 5 1.0 4.0 0.00 0.12 0.00 83 1009.4
20260507051621 62 0 1.0 4.0 0.00 0.14 0.00 83 1009.3
20260507051125 62 5 2.0 5.0 0.00 0.16 0.00 83 1009.2
20260507050621 61 345 2.0 4.0 0.00 0.18 0.00 84 1009.2
20260507050124 61 5 1.0 3.0 0.00 0.18 0.00 85 1009.1
20260507045618 61 338 3.0 3.0 0.00 0.18 0.00 85 1009.0
20260507045121 61 46 1.0 2.0 0.00 0.18 0.00 85 1009.1
20260507044618 61 48 0.0 3.0 0.00 0.18 0.00 85 1009.0
20260507044118 61 37 0.0 3.0 0.00 0.18 0.00 85 1009.0
20260507043618 61 51 0.0 2.0 0.00 0.18 0.00 85 1009.0
20260507043118 61 62 2.0 3.0 0.00 0.18 0.00 85 1009.0
20260507042618 61 25 1.0 2.0 0.00 0.18 0.00 85 1008.9
20260507042118 61 0 1.0 3.0 0.00 0.18 0.00 85 1008.9
20260507041618 61 52 2.0 3.0 0.00 0.18 0.00 86 1008.9
20260507041118 61 51 0.0 2.0 0.00 0.18 0.00 86 1008.9
20260507040618 61 51 0.0 3.0 0.00 0.18 0.00 86 1008.8
20260507040124 61 74 2.0 4.0 0.00 0.18 0.00 86 1008.8
20260507035618 61 48 3.0 3.0 0.00 0.18 0.00 86 1008.9
20260507035118 61 40 2.0 3.0 0.00 0.18 0.00 86 1008.9
20260507034624 61 40 0.0 4.0 0.00 0.18 0.00 86 1008.8
20260507034118 61 23 0.0 3.0 0.00 0.18 0.00 86 1008.8
20260507033618 61 346 1.0 3.0 0.00 0.18 0.00 86 1008.7
20260507033121 61 334 1.0 3.0 0.00 0.18 0.00 86 1008.6
20260507032624 61 29 2.0 3.0 0.00 0.18 0.00 86 1008.6
20260507032118 62 45 2.0 5.0 0.00 0.18 0.00 85 1008.6
20260507031618 62 57 4.0 4.0 0.00 0.18 0.00 85 1008.6
20260507031121 62 67 1.0 3.0 0.00 0.18 0.00 86 1008.7
20260507030618 62 66 2.0 4.0 0.00 0.18 0.00 86 1008.8
20260507030118 62 26 1.0 4.0 0.00 0.18 0.00 86 1008.8
20260507025621 62 38 4.0 4.0 0.00 0.18 0.00 86 1008.8
20260507025121 62 38 1.0 3.0 0.00 0.18 0.00 87 1008.7
20260507024619 62 61 0.0 3.0 0.00 0.18 0.00 87 1008.7
20260507024118 62 28 1.0 1.0 0.00 0.18 0.00 87 1008.7
20260507023618 62 28 1.0 3.0 0.00 0.18 0.00 87 1008.7
20260507023124 62 54 2.0 3.0 0.00 0.18 0.00 87 1008.7
20260507022621 62 74 2.0 6.0 0.00 0.18 0.00 86 1008.7
20260507022121 61 24 5.0 5.0 0.00 0.18 0.00 88 1008.7
20260507021618 61 50 1.0 2.0 0.00 0.18 0.00 88 1008.6
20260507021118 61 50 2.0 4.0 0.00 0.19 0.00 87 1008.6
20260507020618 61 42 2.0 4.0 0.00 0.19 0.00 87 1008.7
20260507020118 62 62 1.0 3.0 0.00 0.19 0.00 87 1008.6
20260507015618 62 27 0.0 3.0 0.00 0.20 0.00 87 1008.6
20260507015121 62 21 1.0 2.0 0.00 0.20 0.00 88 1008.5
20260507014618 61 21 1.0 2.0 0.00 0.21 0.00 88 1008.4
20260507014121 61 21 2.0 3.0 0.00 0.21 0.00 88 1008.4
20260507013618 61 61 2.0 5.0 0.00 0.22 0.00 88 1008.4
20260507013121 61 73 1.0 2.0 0.00 0.24 0.00 88 1008.4
20260507012624 62 27 1.0 3.0 0.00 0.27 0.00 87 1008.4
20260507012118 62 34 2.0 2.0 0.00 0.28 0.00 87 1008.5
20260507011621 62 21 1.0 2.0 0.00 0.29 0.00 87 1008.5
20260507011118 62 21 1.0 2.0 0.00 0.30 0.00 87 1008.5
20260507010618 62 32 0.0 2.0 0.00 0.30 0.00 87 1008.6
20260507010127 62 33 2.0 2.0 0.00 0.30 0.00 87 1008.6
20260507005618 62 33 0.0 2.0 0.00 0.31 0.00 87 1008.7
20260507005121 62 25 1.0 1.0 0.00 0.33 0.00 87 1008.7
20260507004621 62 25 1.0 3.0 0.00 0.34 0.00 86 1008.7
20260507004124 62 74 1.0 2.0 0.00 0.36 0.00 86 1008.7
20260507003624 62 5 0.0 2.0 0.00 0.36 0.00 86 1008.7
20260507003118 62 5 2.0 3.0 0.00 0.37 0.00 86 1008.6
20260507002624 62 12 1.0 2.0 0.00 0.37 0.00 86 1008.6
20260507002121 63 23 1.0 3.0 0.00 0.38 0.00 86 1008.6
20260507001618 63 347 2.0 2.0 0.00 0.38 0.00 86 1008.6
20260507001118 63 44 0.0 3.0 0.00 0.39 0.00 86 1008.6
20260507000621 63 305 2.0 3.0 0.00 0.39 0.00 86 1008.6
20260507000124 63 266 1.0 4.0 0.00 0.39 0.00 86 1008.5
20260506235621 63 287 2.0 3.0 0.00 0.39 0.00 85 1008.6
20260506235121 62 311 2.0 3.0 0.00 0.39 0.00 85 1008.6
20260506234621 62 345 2.0 3.0 0.00 0.39 0.00 85 1008.6
20260506234121 63 252 2.0 3.0 0.00 0.39 0.00 85 1008.6
20260506233621 63 295 3.0 3.0 0.00 0.39 0.00 85 1008.7
20260506233121 63 321 0.0 3.0 0.00 0.39 0.00 85 1008.7
20260506232621 63 272 0.0 4.0 0.00 0.39 0.00 85 1008.7
20260506232118 63 238 4.0 7.0 0.00 0.39 0.00 85 1008.7
20260506231627 63 235 2.0 6.0 0.00 0.39 0.00 85 1008.8
20260506231121 63 219 2.0 4.0 0.00 0.39 0.00 85 1008.7
20260506230618 63 252 2.0 4.0 0.00 0.39 0.00 85 1008.8
20260506230121 63 120 2.0 7.0 0.00 0.39 0.00 85 1008.6
20260506225618 63 221 2.0 5.0 0.00 0.39 0.00 85 1008.6
20260506225121 63 231 3.0 5.0 0.00 0.39 0.00 85 1008.6
20260506224624 63 259 1.0 3.0 0.00 0.39 0.00 85 1008.6
20260506224118 63 312 1.0 3.0 0.00 0.39 0.00 84 1008.6
20260506223618 63 238 2.0 7.0 0.00 0.39 0.00 84 1008.5
20260506223118 63 202 7.0 8.0 0.00 0.39 0.00 85 1008.5
20260506222618 63 222 2.0 5.0 0.00 0.39 0.00 84 1008.5
20260506222118 63 213 5.0 7.0 0.00 0.39 0.00 84 1008.6
20260506221618 63 243 3.0 8.0 0.00 0.39 0.00 84 1008.7
20260506221121 63 191 3.0 9.0 0.00 0.39 0.00 84 1008.8
20260506220621 63 172 2.0 7.0 0.00 0.39 0.00 84 1008.6
20260506220121 63 184 4.0 10.0 0.00 0.39 0.00 84 1008.7
20260506215618 63 239 5.0 8.0 0.00 0.39 0.00 84 1008.6
20260506215121 63 167 6.0 9.0 0.00 0.39 0.00 84 1008.7
20260506214618 63 188 7.0 8.0 0.00 0.39 0.00 84 1008.7
20260506214119 63 209 3.0 10.0 0.00 0.39 0.00 83 1008.8
20260506213621 63 219 5.0 11.0 0.00 0.39 0.00 83 1008.7
20260506213121 63 173 9.0 11.0 0.00 0.39 0.00 83 1008.7
20260506212621 63 223 5.0 10.0 0.00 0.39 0.00 83 1008.7
20260506212124 63 167 11.0 11.0 0.00 0.39 0.00 83 1008.8
20260506211621 63 219 3.0 9.0 0.00 0.39 0.00 83 1008.8
20260506211121 63 189 7.0 10.0 0.00 0.39 0.00 83 1008.8
20260506210624 63 214 4.0 10.0 0.00 0.39 0.00 82 1008.7
20260506210121 63 202 5.0 9.0 0.00 0.39 0.00 82 1008.7
20260506205621 63 180 3.0 9.0 0.00 0.39 0.00 82 1008.7
20260506205124 63 170 6.0 9.0 0.00 0.39 0.00 81 1008.7
20260506204618 63 242 5.0 8.0 0.00 0.39 0.00 82 1008.6
20260506204121 63 212 2.0 8.0 0.00 0.39 0.00 81 1008.6
20260506203625 63 260 2.0 7.0 0.00 0.39 0.00 81 1008.6
20260506203121 63 235 3.0 7.0 0.00 0.39 0.00 81 1008.5
20260506202618 63 187 3.0 12.0 0.00 0.39 0.00 81 1008.4
20260506202118 63 205 5.0 8.0 0.00 0.39 0.00 81 1008.4
20260506201621 63 231 2.0 6.0 0.00 0.39 0.00 82 1008.4
20260506201121 63 216 3.0 9.0 0.00 0.39 0.00 81 1008.3
20260506200621 63 218 3.0 6.0 0.00 0.39 0.00 81 1008.3
20260506200121 63 188 2.0 8.0 0.00 0.39 0.00 81 1008.3
20260506195621 63 184 3.0 9.0 0.00 0.39 0.00 81 1008.2
20260506195121 63 199 2.0 10.0 0.00 0.39 0.00 81 1008.1
20260506194624 63 188 4.0 9.0 0.00 0.39 0.00 81 1008.0
20260506194121 63 227 5.0 10.0 0.00 0.39 0.00 81 1008.0
20260506193618 63 186 2.0 9.0 0.00 0.39 0.00 81 1007.9
20260506193121 63 234 3.0 10.0 0.00 0.39 0.00 81 1007.7
20260506192621 63 179 6.0 10.0 0.00 0.39 0.00 81 1007.6
20260506192121 63 254 3.0 7.0 0.00 0.39 0.00 81 1007.5
20260506191624 63 259 1.0 5.0 0.00 0.39 0.00 81 1007.5
20260506191118 63 313 2.0 3.0 0.00 0.39 0.00 81 1007.5
20260506190621 63 312 1.0 4.0 0.00 0.39 0.00 81 1007.4
20260506190121 63 155 1.0 5.0 0.00 0.39 0.00 81 1007.3
20260506185618 63 355 2.0 5.0 0.00 0.39 0.00 81 1007.4
20260506185124 63 248 1.0 6.0 0.00 0.39 0.00 81 1007.3
20260506184621 63 204 5.0 4.0 0.00 0.39 0.00 81 1007.2
20260506184121 63 316 2.0 4.0 0.00 0.39 0.00 82 1007.2
20260506183618 63 236 2.0 6.0 0.00 0.39 0.00 81 1007.1
20260506183127 63 88 1.0 8.0 0.00 0.39 0.00 82 1007.0
20260506182618 63 211 7.0 10.0 0.00 0.39 0.00 81 1007.1
20260506182118 63 181 6.0 11.0 0.00 0.39 0.00 82 1007.1
20260506181621 63 206 3.0 11.0 0.00 0.39 0.00 82 1006.9
20260506181118 63 204 8.0 12.0 0.00 0.39 0.00 82 1006.9
20260506180618 63 213 6.0 10.0 0.00 0.39 0.00 82 1006.9
20260506180121 63 196 4.0 11.0 0.00 0.39 0.00 81 1006.8
20260506175621 63 161 9.0 11.0 0.00 0.39 0.00 82 1006.6
20260506175124 64 206 10.0 10.0 0.00 0.39 0.00 82 1006.5
20260506174627 64 302 2.0 9.0 0.00 0.39 0.00 82 1006.5
20260506174124 64 264 3.0 12.0 0.00 0.39 0.00 81 1006.5
20260506173624 64 219 5.0 6.0 0.00 0.39 0.00 81 1006.6
20260506173121 64 260 3.0 8.0 0.00 0.39 0.00 81 1006.6
20260506172618 64 258 4.0 8.0 0.00 0.39 0.00 80 1006.6
20260506172118 64 230 8.0 8.0 0.00 0.39 0.00 80 1006.6
20260506171618 64 295 3.0 9.0 0.00 0.39 0.00 81 1006.6
20260506171121 64 290 5.0 7.0 0.00 0.39 0.00 81 1006.5
20260506170618 64 250 7.0 8.0 0.00 0.39 0.00 81 1006.5
20260506170127 64 304 4.0 9.0 0.00 0.39 0.00 82 1006.4
20260506165624 64 317 4.0 6.0 0.00 0.39 0.00 83 1006.4
20260506165124 64 313 3.0 4.0 0.00 0.39 0.00 83 1006.4
20260506164618 64 0 1.0 7.0 0.00 0.39 0.00 83 1006.5
20260506164124 64 263 6.0 8.0 0.00 0.39 0.00 83 1006.4
20260506163618 64 257 3.0 6.0 0.00 0.39 0.00 84 1006.4
20260506163118 64 330 1.0 5.0 0.00 0.39 0.00 84 1006.4
20260506162621 64 314 3.0 7.0 0.00 0.39 0.00 84 1006.4
20260506162124 64 22 4.0 8.0 0.00 0.39 0.00 84 1006.3
20260506161618 64 279 3.0 7.0 0.00 0.39 0.00 84 1006.3
20260506161121 64 304 7.0 7.0 0.00 0.39 0.00 83 1006.4
20260506160621 64 243 4.0 8.0 0.00 0.39 0.00 82 1006.4
20260506160118 64 326 4.0 9.0 0.00 0.39 0.00 81 1006.5
20260506155618 64 262 2.0 8.0 0.00 0.39 0.00 81 1006.5
20260506155118 64 282 4.0 8.0 0.00 0.39 0.00 80 1006.4
20260506154624 64 241 4.0 8.0 0.00 0.39 0.00 80 1006.3
20260506154118 64 252 5.0 11.0 0.00 0.39 0.00 80 1006.3
20260506153618 65 193 10.0 11.0 0.00 0.39 0.00 79 1006.3
20260506153121 65 213 9.0 11.0 0.00 0.39 0.00 79 1006.3
20260506152624 65 238 2.0 7.0 0.00 0.39 0.00 79 1006.4
20260506152119 65 220 5.0 13.0 0.00 0.39 0.00 79 1006.4
20260506151621 65 227 5.0 12.0 0.00 0.39 0.00 79 1006.4
20260506151121 65 198 9.0 12.0 0.00 0.39 0.00 78 1006.4
20260506150618 65 174 8.0 14.0 0.00 0.39 0.00 79 1006.4
20260506150118 65 207 9.0 15.0 0.00 0.39 0.00 79 1006.4
20260506145618 65 187 10.0 12.0 0.00 0.39 0.00 79 1006.4
20260506145121 65 212 5.0 13.0 0.00 0.39 0.00 77 1006.4
20260506144618 65 205 4.0 12.0 0.00 0.39 0.00 78 1006.4
20260506144118 65 196 6.0 11.0 0.00 0.39 0.00 77 1006.5
20260506143618 65 202 7.0 11.0 0.00 0.39 0.00 77 1006.4
20260506143118 65 238 6.0 11.0 0.00 0.39 0.00 78 1006.5
20260506142618 65 218 8.0 13.0 0.00 0.39 0.00 77 1006.4
20260506142118 65 175 10.0 14.0 0.00 0.39 0.00 78 1006.4
20260506141618 65 227 7.0 11.0 0.00 0.39 0.00 78 1006.4
20260506141121 65 216 7.0 13.0 0.00 0.39 0.00 80 1006.5
20260506140624 65 185 7.0 13.0 0.00 0.39 0.00 80 1006.5
20260506140118 65 228 4.0 12.0 0.00 0.39 0.00 81 1006.5
20260506135621 65 197 6.0 11.0 0.00 0.39 0.00 82 1006.5
20260506135118 65 207 7.0 13.0 0.00 0.39 0.00 80 1006.5
20260506134618 65 200 7.0 11.0 0.00 0.39 0.00 80 1006.5
20260506134124 65 198 7.0 14.0 0.00 0.39 0.00 79 1006.6
20260506133621 65 178 6.0 13.0 0.00 0.39 0.00 81 1006.6
20260506133118 65 173 2.0 11.0 0.00 0.39 0.00 79 1006.7
20260506132618 65 202 4.0 12.0 0.00 0.39 0.00 80 1006.7
20260506132121 65 211 10.0 14.0 0.00 0.39 0.00 80 1006.6
20260506131621 66 192 11.0 11.0 0.00 0.39 0.00 81 1006.7
20260506131121 65 178 5.0 12.0 0.00 0.39 0.00 81 1006.8
20260506130618 65 232 8.0 17.0 0.00 0.39 0.00 82 1006.8
20260506130121 65 229 11.0 13.0 0.00 0.39 0.00 81 1006.8
20260506125621 65 217 13.0 13.0 0.00 0.39 0.00 80 1006.8
20260506125121 65 248 4.0 12.0 0.00 0.39 0.00 79 1006.9
20260506124621 66 217 3.0 14.0 0.00 0.39 0.00 79 1006.7
20260506124118 65 208 8.0 10.0 0.00 0.39 0.00 80 1006.6
20260506123618 65 146 3.0 11.0 0.00 0.39 0.00 78 1006.5
20260506123121 65 205 1.0 10.0 0.00 0.39 0.00 78 1006.5
20260506122624 65 234 2.0 12.0 0.00 0.39 0.00 78 1006.5
20260506122118 65 207 4.0 12.0 0.00 0.39 0.00 80 1006.5
20260506121621 64 214 4.0 9.0 0.00 0.39 0.00 82 1006.5
20260506121118 64 175 7.0 9.0 0.00 0.39 0.00 83 1006.6
20260506120621 64 180 4.0 8.0 0.00 0.39 0.00 82 1006.5
20260506120118 64 188 6.0 10.0 0.00 0.39 0.00 82 1006.6
20260506115618 64 257 7.0 8.0 0.00 0.39 0.00 83 1006.5
20260506115118 64 261 3.0 7.0 0.00 0.39 0.00 83 1006.5
20260506114624 64 205 2.0 8.0 0.00 0.39 0.00 82 1006.5
20260506114121 64 159 6.0 6.0 0.00 0.39 0.00 82 1006.5
20260506113618 64 193 3.0 10.0 0.00 0.39 0.00 83 1006.5
20260506113121 64 208 3.0 11.0 0.00 0.39 0.00 82 1006.5
20260506112618 64 184 5.0 10.0 0.00 0.39 0.00 83 1006.5
20260506112118 64 212 7.0 7.0 0.00 0.39 0.00 83 1006.5